Regional Weather Roundup
Issued by NWS

Home | Current Version | Previous Version | Graphics & Text | Print | Product List | Glossary On
Versions: 1 2 3 4 5 6 7 8 9 10 11 12 13 14 15 16 17 18 19 20 21 22 23 24 25 26 27 28 29 30 31 32 33 34 35 36 37 38 39 40 41 42 43 44 45 46 47 48 49 50
000
ASUS43 KBIS 300610
RWRND

NORTH DAKOTA REGIONAL WEATHER ROUNDUP
NATIONAL WEATHER SERVICE BISMARCK ND
100 AM CDT THU JUL 30 2015

NOTE: "FAIR" INDICATES FEW OR NO CLOUDS BELOW 12,000 FEET WITH NO
SIGNIFICANT WEATHER AND/OR OBSTRUCTIONS TO VISIBILITY.


NDZ001>003-009>011-017-300700-
NORTHWEST NORTH DAKOTA

CITY           SKY/WX    TMP DP  RH WIND       PRES   REMARKS
WILLISTON      PTCLDY    59  52  77 SW5       30.08S
6HR MIN TEMP:  58; 6HR MAX TEMP:  82;

MINOT          CLEAR     60  52  74 SW9       30.03F
MINOT AFB      CLEAR     58  56  95 W9        30.02S
$$

NDZ018>021-031>035-040>046-300700-
SOUTHWEST NORTH DAKOTA

CITY           SKY/WX    TMP DP  RH WIND       PRES   REMARKS
BISMARCK       CLEAR     55  50  83 CALM      30.10R
6HR MIN TEMP:  54; 6HR MAX TEMP:  82;

DICKINSON      CLEAR     53  46  77 S5        30.13S
GARRISON         N/A     61  50  67 W8        30.07S
6HR MIN TEMP:  59; 6HR MAX TEMP:  78;

HETTINGER ARPT CLEAR     52  46  80 CALM      30.18R
$$

NDZ004>008-012>016-024-026-027-054-300700-
NORTHEAST NORTH DAKOTA

CITY           SKY/WX    TMP DP  RH WIND       PRES   REMARKS
GRAND FORKS    CLEAR     64  57  78 W8        29.92S
GRND FRKS AFB  CLEAR     65  57  76 W8        29.94R
DEVILS LAKE    CLEAR     64  54  68 W10       29.98R
$$

NDZ022-023-025-028>030-036>039-047>053-300700-
SOUTHEAST NORTH DAKOTA

CITY           SKY/WX    TMP DP  RH WIND       PRES   REMARKS
FARGO          CLEAR     66  57  72 W12       29.97R
6HR MIN TEMP:  66; 6HR MAX TEMP:  80;

JAMESTOWN      CLEAR     64  53  67 W9        30.03R
$$



USA.gov is the U.S. government's official web portal to all federal, state and local government web resources and services.